Butte, MT

1:43 PM MDT on June 26, 2017 (GMT -0600)
Mooney

Weather History for KBTM - November, 2013

Change the Weather History Date:

Saturday, November 30, 2013

  Actual Average Record
Temperature  
Mean Temperature 36 °F 20 °F  
Max Temperature 42 °F 32 °F 58 °F (1999)
Min Temperature 30 °F 9 °F -28 °F (1975)
Degree Days  
Heating Degree Days 29 45  
Month to date heating degree days 1018 1118  
Since 1 July heating degree days 2260 2490  
Cooling Degree Days 0 0  
Month to date cooling degree days 0 0  
Year to date cooling degree days 104 81  
Moisture  
Dew Point 26 °F    
Average Humidity 73    
Maximum Humidity 92    
Minimum Humidity 53    
Precipitation  
Precipitation T in 0.02 in 0.36 in (1919)
Month to date precipitation 0.20 0.60  
Year to date precipitation 11.10 12.26  
Sea Level Pressure  
Sea Level Pressure 30.20 in    
Wind  
Wind Speed 3 mph (NW)    
Max Wind Speed 12 mph    
Max Gust Speed 16 mph    
Visibility 10 miles    
Events      
T = Trace of Precipitation, MM = Missing Value Source: NWS Daily Summary

Daily Weather History Graph

Daily Weather History Graph

Search for Another Location

Airport or City:

Trip Planner

Search our weather history database for the weather conditions in past years. The results will help you decide how hot, cold, wet, or windy it might be!

Date:

Astronomy

Nov. 30, 2013 Rise Set
Actual Time 7:50 AM MST 4:46 PM MST
Civil Twilight 7:16 AM MST 5:20 PM MST
Nautical Twilight 6:39 AM MST 5:57 PM MST
Astronomical Twilight 6:03 AM MST 6:33 PM MST
Moon 4:58 AM MST (11/30) 3:19 PM MST (11/30)
Length of Visible Light 10h 04m
Length of Day
8h 56m
Waning Crescent, 7% of the Moon is Illuminated
Nov 30
Waning Crescent
Dec 2
New
Dec 9
First Quarter
Dec 17
Full
Dec 25
Last Quarter

Hourly Weather History & Observations

Time (MST) Temp. Windchill Dew Point Humidity Pressure Visibility Wind Dir Wind Speed Gust Speed Precip Events Conditions
12:53 AM 34.0 °F - 23.0 °F 64% 30.19 in 10.0 mi Calm Calm - N/A   Overcast
1:53 AM 35.1 °F - 23.0 °F 61% 30.16 in 10.0 mi Calm Calm - N/A   Overcast
2:53 AM 34.0 °F - 23.0 °F 64% 30.17 in 10.0 mi Calm Calm - N/A   Overcast
3:53 AM 35.1 °F 30.1 °F 23.0 °F 61% 30.17 in 10.0 mi WNW 5.8 mph - N/A   Overcast
4:53 AM 34.0 °F 31.0 °F 23.0 °F 64% 30.19 in 10.0 mi North 3.5 mph - N/A   Overcast
5:53 AM 35.1 °F 32.2 °F 24.1 °F 64% 30.21 in 10.0 mi NNW 3.5 mph - N/A   Overcast
6:53 AM 35.1 °F - 24.1 °F 64% 30.26 in 10.0 mi Calm Calm - N/A   Overcast
7:53 AM 36.0 °F - 25.0 °F 64% 30.26 in 10.0 mi Calm Calm - N/A   Overcast
8:53 AM 35.1 °F - 25.0 °F 67% 30.26 in 10.0 mi Calm Calm - N/A   Overcast
9:53 AM 37.0 °F 34.5 °F 27.0 °F 67% 30.26 in 10.0 mi NNE 3.5 mph - N/A   Overcast
10:53 AM 39.0 °F 36.8 °F 26.1 °F 60% 30.23 in 10.0 mi NNE 3.5 mph - N/A   Overcast
11:53 AM 42.1 °F 36.6 °F 26.1 °F 53% 30.20 in 10.0 mi SW 9.2 mph - N/A   Mostly Cloudy
12:53 PM 42.1 °F 36.6 °F 26.1 °F 53% 30.17 in 10.0 mi WSW 9.2 mph - N/A   Overcast
1:53 PM 42.1 °F 37.1 °F 27.0 °F 55% 30.15 in 10.0 mi WSW 8.1 mph - N/A   Overcast
2:53 PM 42.1 °F 37.7 °F 27.0 °F 55% 30.15 in 10.0 mi West 6.9 mph - N/A   Overcast
3:53 PM 39.9 °F 35.8 °F 28.0 °F 63% 30.17 in 10.0 mi NW 5.8 mph - N/A   Overcast
4:53 PM 37.9 °F - 30.0 °F 73% 30.19 in 10.0 mi Calm Calm - 0.00 in   Overcast
5:53 PM 37.0 °F - 30.0 °F 76% 30.20 in 10.0 mi Calm Calm - N/A   Overcast
6:53 PM 36.0 °F 32.1 °F 30.0 °F 79% 30.20 in 10.0 mi North 4.6 mph - N/A   Overcast
7:53 PM 35.1 °F - 28.9 °F 78% 30.19 in 10.0 mi Calm Calm - N/A   Overcast
8:53 PM 34.0 °F 31.0 °F 28.9 °F 82% 30.20 in 10.0 mi NW 3.5 mph - N/A   Overcast
9:53 PM 35.1 °F 31.0 °F 28.9 °F 78% 30.19 in 10.0 mi NE 4.6 mph - N/A   Overcast
10:53 PM 30.9 °F - 28.0 °F 89% 30.20 in 10.0 mi Calm Calm - N/A   Mostly Cloudy
11:53 PM 30.9 °F - 27.0 °F 85% 30.18 in 10.0 mi Calm Calm - N/A   Overcast